| time (UTC) | temp F | wind direction | speed MPH | gust MPH | rain 1hr in | rain 24hr in | rain mn in | humidity % | barometer mb |
| 20260508073044 | 47 | 307 | 2.0 | 5.0 | 0.00 | 0.37 | 0.00 | 60 | 1008.9 |
| 20260508071541 | 47 | 323 | 2.0 | 8.0 | 0.00 | 0.37 | 0.00 | 60 | 1008.8 |
| 20260508070039 | 48 | 344 | 2.0 | 9.0 | 0.00 | 0.37 | 0.00 | 60 | 1008.6 |
| 20260508064540 | 48 | 348 | 2.0 | 6.0 | 0.00 | 0.37 | 0.00 | 59 | 1008.6 |
| 20260508063038 | 48 | 327 | 2.0 | 6.0 | 0.00 | 0.37 | 0.00 | 60 | 1008.3 |
| 20260508061545 | 49 | 343 | 3.0 | 10.0 | 0.00 | 0.37 | 0.00 | 58 | 1008.2 |
| 20260508060045 | 50 | 310 | 3.0 | 11.0 | 0.00 | 0.37 | 0.00 | 56 | 1008.2 |
| 20260508054543 | 50 | 283 | 2.0 | 10.0 | 0.00 | 0.37 | 0.00 | 56 | 1008.1 |
| 20260508053046 | 51 | 350 | 3.0 | 13.0 | 0.00 | 0.37 | 0.00 | 54 | 1008.1 |
| 20260508051540 | 51 | 306 | 5.0 | 11.0 | 0.00 | 0.37 | 0.00 | 53 | 1008.2 |
| 20260508050038 | 52 | 335 | 4.0 | 13.0 | 0.00 | 0.37 | 0.00 | 55 | 1008.4 |
| 20260508044544 | 52 | 307 | 5.0 | 16.0 | 0.00 | 0.37 | 0.00 | 53 | 1008.5 |
| 20260508043045 | 52 | 309 | 4.0 | 13.0 | 0.00 | 0.37 | 0.00 | 54 | 1008.5 |
| 20260508041542 | 52 | 317 | 6.0 | 12.0 | 0.00 | 0.37 | 0.00 | 55 | 1008.5 |
| 20260508040040 | 52 | 298 | 4.0 | 10.0 | 0.00 | 0.37 | 0.00 | 55 | 1008.6 |
| 20260508034538 | 52 | 313 | 5.0 | 14.0 | 0.00 | 0.37 | 0.37 | 52 | 1008.6 |
| 20260508033038 | 52 | 285 | 5.0 | 14.0 | 0.00 | 0.37 | 0.37 | 52 | 1008.6 |
| 20260508031543 | 52 | 308 | 5.0 | 11.0 | 0.00 | 0.37 | 0.37 | 58 | 1008.6 |
| 20260508030045 | 52 | 5 | 4.0 | 10.0 | 0.00 | 0.37 | 0.37 | 56 | 1008.8 |
| 20260508024540 | 52 | 306 | 4.0 | 11.0 | 0.00 | 0.37 | 0.37 | 54 | 1009.0 |
| 20260508023038 | 52 | 291 | 4.0 | 13.0 | 0.00 | 0.37 | 0.37 | 54 | 1009.0 |
| 20260508021548 | 52 | 337 | 4.0 | 11.0 | 0.00 | 0.37 | 0.37 | 55 | 1008.8 |
| 20260508020045 | 53 | 325 | 5.0 | 11.0 | 0.00 | 0.37 | 0.37 | 53 | 1009.0 |
| 20260508014544 | 53 | 335 | 4.0 | 10.0 | 0.00 | 0.37 | 0.37 | 55 | 1008.8 |
| 20260508013044 | 53 | 349 | 1.0 | 10.0 | 0.00 | 0.37 | 0.37 | 54 | 1008.8 |
| 20260508011539 | 53 | 315 | 2.0 | 6.0 | 0.00 | 0.37 | 0.37 | 54 | 1008.6 |
| 20260508010038 | 54 | 302 | 2.0 | 6.0 | 0.00 | 0.37 | 0.37 | 52 | 1008.7 |
| 20260508004540 | 55 | 344 | 2.0 | 5.0 | 0.00 | 0.37 | 0.37 | 51 | 1008.4 |
| 20260508003043 | 55 | 333 | 3.0 | 12.0 | 0.00 | 0.37 | 0.37 | 46 | 1008.1 |
| 20260508001545 | 56 | 269 | 4.0 | 13.0 | 0.00 | 0.37 | 0.37 | 47 | 1007.6 |
| 20260508000044 | 56 | 302 | 4.0 | 10.0 | 0.00 | 0.37 | 0.37 | 50 | 1007.1 |
| 20260507234537 | 57 | 310 | 5.0 | 16.0 | 0.00 | 0.38 | 0.37 | 46 | 1007.2 |
| 20260507233045 | 58 | 280 | 5.0 | 15.0 | 0.00 | 0.38 | 0.37 | 45 | 1006.9 |
| 20260507231552 | 59 | 302 | 7.0 | 17.0 | 0.00 | 0.38 | 0.37 | 48 | 1006.9 |
| 20260507230047 | 60 | 344 | 3.0 | 15.0 | 0.00 | 0.38 | 0.37 | 48 | 1006.7 |
| 20260507224540 | 61 | 325 | 5.0 | 13.0 | 0.00 | 0.47 | 0.37 | 46 | 1006.5 |
| 20260507223038 | 63 | 334 | 5.0 | 12.0 | 0.00 | 0.47 | 0.37 | 48 | 1006.3 |
| 20260507221537 | 63 | 13 | 6.0 | 17.0 | 0.00 | 0.47 | 0.37 | 42 | 1006.2 |
| 20260507220038 | 65 | 43 | 6.0 | 11.0 | 0.00 | 0.47 | 0.37 | 42 | 1006.2 |
| 20260507214552 | 65 | 360 | 3.0 | 11.0 | 0.00 | 0.52 | 0.37 | 40 | 1006.1 |
| 20260507213048 | 65 | 341 | 5.0 | 11.0 | 0.00 | 0.52 | 0.37 | 40 | 1006.1 |
| 20260507211538 | 65 | 352 | 5.0 | 12.0 | 0.00 | 0.52 | 0.37 | 36 | 1006.0 |
| 20260507210050 | 65 | 333 | 6.0 | 15.0 | 0.00 | 0.52 | 0.37 | 43 | 1005.8 |
| 20260507204538 | 66 | 283 | 4.0 | 9.0 | 0.00 | 0.56 | 0.37 | 39 | 1005.8 |
| 20260507203047 | 66 | 355 | 5.0 | 10.0 | 0.00 | 0.56 | 0.37 | 40 | 1005.7 |
| 20260507201543 | 66 | 255 | 3.0 | 9.0 | 0.00 | 0.56 | 0.37 | 44 | 1005.7 |
| 20260507200043 | 67 | 328 | 5.0 | 14.0 | 0.00 | 0.56 | 0.37 | 43 | 1005.7 |
| 20260507194608 | 67 | 351 | 3.0 | 11.0 | 0.00 | 0.58 | 0.37 | 40 | 1005.7 |
| 20260507193038 | 67 | 18 | 3.0 | 10.0 | 0.00 | 0.58 | 0.37 | 41 | 1006.0 |
| 20260507191542 | 66 | 360 | 4.0 | 11.0 | 0.00 | 0.58 | 0.37 | 41 | 1006.3 |
| 20260507190044 | 65 | 333 | 2.0 | 10.0 | 0.00 | 0.58 | 0.37 | 42 | 1006.5 |
| 20260507184545 | 64 | 276 | 2.0 | 6.0 | 0.00 | 0.58 | 0.37 | 49 | 1006.6 |
| 20260507183041 | 64 | 355 | 2.0 | 8.0 | 0.00 | 0.58 | 0.37 | 59 | 1006.9 |
| 20260507181539 | 63 | 273 | 1.0 | 8.0 | 0.00 | 0.58 | 0.37 | 66 | 1007.1 |
| 20260507180040 | 62 | 181 | 3.0 | 9.0 | 0.00 | 0.58 | 0.37 | 73 | 1007.3 |
| 20260507174543 | 62 | 180 | 4.0 | 9.0 | 0.00 | 0.58 | 0.37 | 75 | 1007.4 |
| 20260507173044 | 62 | 163 | 3.0 | 12.0 | 0.00 | 0.58 | 0.37 | 70 | 1007.2 |
| 20260507171547 | 62 | 180 | 4.0 | 9.0 | 0.00 | 0.58 | 0.37 | 70 | 1007.6 |
| 20260507170043 | 63 | 209 | 1.0 | 9.0 | 0.00 | 0.58 | 0.37 | 71 | 1007.7 |
| 20260507164538 | 62 | 242 | 2.0 | 9.0 | 0.00 | 0.58 | 0.37 | 65 | 1008.0 |
| 20260507163037 | 61 | 360 | 2.0 | 9.0 | 0.00 | 0.58 | 0.37 | 69 | 1008.1 |
| 20260507161540 | 60 | 345 | 2.0 | 10.0 | 0.00 | 0.58 | 0.37 | 67 | 1008.1 |
| 20260507160045 | 59 | 22 | 2.0 | 8.0 | 0.00 | 0.58 | 0.37 | 73 | 1008.2 |
| 20260507154543 | 59 | 307 | 3.0 | 8.0 | 0.00 | 0.58 | 0.37 | 74 | 1008.4 |
| 20260507153043 | 58 | 277 | 0.0 | 4.0 | 0.00 | 0.58 | 0.37 | 80 | 1008.6 |
| 20260507151539 | 57 | 266 | 2.0 | 8.0 | 0.00 | 0.58 | 0.37 | 81 | 1008.7 |
| 20260507150038 | 56 | 22 | 3.0 | 8.0 | 0.00 | 0.58 | 0.37 | 86 | 1008.7 |
| 20260507144545 | 54 | 340 | 5.0 | 11.0 | 0.00 | 0.58 | 0.37 | 88 | 1008.8 |
| 20260507143045 | 53 | 42 | 6.0 | 13.0 | 0.00 | 0.58 | 0.37 | 92 | 1008.6 |
| 20260507141544 | 51 | 315 | 6.0 | 12.0 | 0.00 | 0.58 | 0.37 | 96 | 1008.9 |
| 20260507140040 | 51 | 309 | 6.0 | 12.0 | 0.00 | 0.58 | 0.37 | 98 | 1008.8 |
| 20260507134539 | 51 | 283 | 4.0 | 11.0 | 0.00 | 0.58 | 0.37 | 99 | 1009.1 |
| 20260507133038 | 51 | 355 | 4.0 | 11.0 | 0.01 | 0.58 | 0.37 | 99 | 1009.0 |
| 20260507131605 | 51 | 303 | 2.0 | 5.0 | 0.01 | 0.58 | 0.37 | 100 | 1008.9 |
| 20260507130043 | 50 | 341 | 2.0 | 7.0 | 0.01 | 0.58 | 0.37 | 99 | 1009.3 |
| 20260507124544 | 50 | 0 | 1.0 | 8.0 | 0.02 | 0.58 | 0.37 | 99 | 1008.6 |
| 20260507123043 | 50 | 319 | 2.0 | 9.0 | 0.03 | 0.57 | 0.36 | 99 | 1008.7 |
| 20260507121539 | 50 | 0 | 1.0 | 9.0 | 0.04 | 0.57 | 0.36 | 99 | 1009.2 |
| 20260507120039 | 49 | 5 | 2.0 | 4.0 | 0.04 | 0.57 | 0.36 | 99 | 1009.3 |
| 20260507114547 | 49 | 355 | 1.0 | 6.0 | 0.04 | 0.56 | 0.35 | 99 | 1008.8 |
| 20260507113045 | 48 | 355 | 3.0 | 10.0 | 0.03 | 0.54 | 0.33 | 99 | 1008.8 |
| 20260507111544 | 49 | 355 | 5.0 | 14.0 | 0.02 | 0.52 | 0.32 | 99 | 1008.6 |
| 20260507110041 | 49 | 335 | 5.0 | 14.0 | 0.02 | 0.52 | 0.32 | 99 | 1008.9 |
| 20260507104539 | 49 | 21 | 4.0 | 12.0 | 0.02 | 0.52 | 0.31 | 99 | 1008.7 |
| 20260507103038 | 49 | 344 | 4.0 | 12.0 | 0.02 | 0.51 | 0.30 | 99 | 1007.6 |
| 20260507101538 | 50 | 14 | 5.0 | 11.0 | 0.03 | 0.51 | 0.30 | 99 | 1007.7 |
| 20260507100048 | 49 | 13 | 6.0 | 14.0 | 0.05 | 0.51 | 0.30 | 99 | 1007.8 |
| 20260507094542 | 49 | 350 | 4.0 | 14.0 | 0.06 | 0.50 | 0.29 | 99 | 1007.7 |
| 20260507093046 | 49 | 14 | 5.0 | 12.0 | 0.07 | 0.49 | 0.28 | 99 | 1007.6 |
| 20260507091538 | 50 | 42 | 7.0 | 13.0 | 0.06 | 0.48 | 0.27 | 99 | 1007.6 |
| 20260507090037 | 51 | 42 | 4.0 | 12.0 | 0.10 | 0.46 | 0.25 | 99 | 1007.3 |
| 20260507084537 | 52 | 360 | 3.0 | 15.0 | 0.15 | 0.44 | 0.23 | 100 | 1007.4 |
| 20260507083046 | 52 | 344 | 3.0 | 8.0 | 0.21 | 0.42 | 0.21 | 100 | 1007.5 |
| 20260507081543 | 53 | 21 | 3.0 | 12.0 | 0.20 | 0.41 | 0.20 | 100 | 1007.1 |
| 20260507080041 | 53 | 338 | 6.0 | 11.0 | 0.15 | 0.36 | 0.15 | 100 | 1007.4 |
| 20260507074539 | 52 | 298 | 3.0 | 7.0 | 0.08 | 0.29 | 0.08 | 100 | 1007.6 |